[[{"header":{"parameterUnit":"m.s-1","parameterCategory":1,"la1":30.2991,"la2":30.254,"lo1":-89.0895,"lo2":-89.0444,"dy":0.0017,"dx":0.0017,"nx":28,"ny":28,"refTime":"2024-06-04T03:00:00:Z","depth":0,"parameterNumber":2,"parameterNumberName":"U-component_of_WINDS"},"data":[0,0,0,0,0,0,0,0,0,0,0,0,0,0,0,0,0,0,0,0,0,0,0,0,0,0,0,0,0,0,0,0,0,0,0,0,0,0,0,0,0,0,0,0,0,0,0,0,0,0,0,0,0,0,0,0,0,0,-1.1339,-1.1341,0,-1.1504,-1.1506,-1.1508,-1.1557,-1.1556,-1.1555,-1.1554,-1.1727,-1.1732,-1.1738,0,0,0,0,0,0,0,0,0,0,0,0,0,-1.107,-1.1074,-1.1339,-1.1341,-1.1343,-1.1504,-1.1506,-1.1509,-1.1557,-1.1556,-1.1555,-1.1554,-1.1725,-1.1732,-1.1738,0,0,0,0,0,0,0,0,0,0,0,0,0,-1.1206,-1.1076,-1.1338,-1.1386,-1.1392,-1.1504,-1.1507,-1.1509,-1.1557,-1.1556,-1.1554,-1.1553,-1.1723,-1.1731,-1.1739,-1.1816,0,0,-1.1764,-1.1768,0,0,0,0,0,0,0,0,-1.1198,-1.1216,-1.1377,-1.1383,-1.139,-1.1508,-1.1475,-1.1612,-1.1557,-1.1495,-1.1554,-1.1552,-1.1656,-1.1669,-1.1703,-1.1824,-1.1832,-1.1765,-1.177,-1.1773,-1.1776,0,0,0,0,0,0,0,-1.1189,-1.1209,-1.1405,-1.1379,-1.1387,-1.1401,-1.1419,-1.1501,-1.1581,-1.15,-1.1504,-1.1522,-1.1659,-1.1695,-1.1708,-1.1834,-1.1765,-1.1772,-1.1777,-1.178,-1.203,-1.2031,0,0,0,0,0,0,-1.117,-1.1201,-1.1399,-1.1409,-1.1289,-1.1407,-1.1427,-1.1472,-1.158,-1.1595,-1.1523,-1.1524,-1.1682,-1.1698,-1.1714,-1.1813,-1.1773,-1.1781,-1.1786,-1.2028,-1.203,-1.2032,0,0,0,0,0,0,-1.1164,-1.1188,-1.1393,-1.1306,-1.1333,-1.1413,-1.1463,-1.1476,-1.1512,-1.1598,-1.1613,-1.1546,-1.1682,-1.1703,-1.1791,-1.182,-1.1785,-1.1792,-1.2026,-1.2029,-1.2031,-1.2011,0,0,0,0,0,0,-1.1157,-1.1185,-1.1214,-1.1307,-1.1338,-1.1465,-1.1465,-1.148,-1.1526,-1.1528,-1.1623,-1.1637,-1.1682,-1.1778,-1.1799,-1.183,-1.1798,-1.2024,-1.2027,-1.203,-1.2009,-1.2012,-1.2015,0,0,0,0,0,-1.1147,-1.1202,-1.1215,-1.1239,-1.1375,-1.1466,-1.1485,-1.1534,-1.1528,-1.1559,-1.1614,-1.1634,-1.1813,-1.1787,-1.1811,-1.1845,-1.2022,-1.2026,-1.203,-1.2008,-1.2012,-1.2015,0,0,0,0,0,0,-1.1112,-1.1215,-1.1231,-1.1317,-1.1383,-1.1474,-1.1514,-1.1537,-1.1606,-1.1606,-1.1666,-1.1687,-1.1771,-1.1817,-1.1786,-1.1927,-1.1918,-1.1927,-1.1893,-1.1898,-1.1901,-1.1888,-1.1805,0,0,0,0,0,-1.1114,-1.1178,-1.1265,-1.1333,-1.1365,-1.1434,-1.1476,-1.1508,-1.1579,-1.1607,-1.1669,-1.1738,-1.181,-1.1856,-1.1927,-1.2016,-1.2038,-1.2051,-1.2054,-1.2056,-1.2063,-1.2116,-1.2123,-1.2045,-1.2045,-1.2045,0,0,-1.1119,-1.1184,-1.122,-1.1328,-1.1382,-1.1449,-1.1457,-1.1527,-1.1578,-1.1619,-1.1706,-1.1753,-1.1835,-1.1924,-1.1966,-1.1964,-1.209,-1.2061,-1.2062,-1.2068,-1.212,-1.2128,-1.2134,-1.2047,-1.2047,-1.2046,0,0,-1.1164,-1.1218,-1.1281,-1.1336,-1.1418,-1.1464,-1.1479,-1.1568,-1.1601,-1.1689,-1.1722,-1.1784,-1.1906,-1.1963,-1.2008,-1.2076,-1.2098,-1.2097,-1.2113,-1.2163,-1.2169,-1.2175,-1.2201,-1.2209,-1.2104,-1.2104,-1.2104,0,-1.116,-1.1261,-1.1311,-1.138,-1.1427,-1.1467,-1.1533,-1.1584,-1.1685,-1.1718,-1.1714,-1.187,-1.1927,-1.2031,-1.2048,-1.2082,-1.2103,-1.2087,-1.2164,-1.217,-1.2177,-1.2202,-1.2211,-1.2104,-1.2104,-1.2104,-1.2104,0,-1.1254,-1.1323,-1.1365,-1.1461,-1.1513,-1.158,-1.1643,-1.1689,-1.1718,-1.1765,-1.1855,-1.1926,-1.2012,-1.2039,-1.2068,-1.2148,-1.2145,-1.2152,-1.2145,-1.2183,-1.2208,-1.2218,-1.2103,-1.2103,-1.2103,-1.2103,0,0,-1.128,-1.1404,-1.1419,-1.1464,-1.1558,-1.1614,-1.1683,-1.1767,-1.1807,-1.1876,-1.1938,-1.2041,-1.2049,-1.21,-1.2136,-1.218,-1.2231,-1.2182,-1.2185,-1.219,-1.2326,-1.2321,-1.2331,-1.2246,-1.2248,-1.225,-1.232,0,-1.1338,-1.1462,-1.151,-1.1613,-1.1679,-1.1718,-1.1779,-1.1844,-1.189,-1.1954,-1.2006,-1.2078,-1.2082,-1.2113,-1.2158,-1.2215,-1.2259,-1.2211,-1.2306,-1.2308,-1.2285,-1.2344,-1.2339,-1.2401,-1.233,-1.2331,-1.2332,0,-1.1421,-1.149,-1.1598,-1.1686,-1.1716,-1.177,-1.1852,-1.1912,-1.1988,-1.2018,-1.2076,-1.2109,-1.2186,-1.2174,-1.2282,-1.2247,-1.2289,-1.2323,-1.2327,-1.2339,-1.2323,-1.2359,-1.2422,-1.2432,-1.2348,-1.2347,-1.2346,0,-1.1431,-1.1552,-1.1633,-1.167,-1.1774,-1.1811,-1.1857,-1.1931,-1.1979,-1.2051,-1.2083,-1.2164,-1.2208,-1.227,-1.2325,-1.2311,-1.2429,-1.2421,-1.2458,-1.2457,-1.2482,-1.248,-1.2554,-1.2506,-1.2506,-1.2506,-1.2506,0,-1.1491,-1.1556,-1.1639,-1.1689,-1.1764,-1.182,-1.1893,-1.1942,-1.2008,-1.207,-1.2108,-1.2166,-1.2234,-1.2301,-1.2345,-1.2429,-1.2448,-1.2476,-1.2488,-1.2474,-1.247,-1.2503,-1.25,-1.2509,-1.2508,-1.2508,-1.2507,0,-1.1515,-1.1573,-1.1664,-1.1755,-1.178,-1.1831,-1.191,-1.1962,-1.2009,-1.2087,-1.2108,-1.2184,-1.2265,-1.2326,-1.243,-1.246,-1.255,-1.2561,-1.2524,-1.253,-1.2564,-1.2561,-1.2663,-1.2681,-1.2619,-1.262,-1.262,0,-1.155,-1.1601,-1.1697,-1.1741,-1.1786,-1.1855,-1.1904,-1.1962,-1.2012,-1.2103,-1.2144,-1.2227,-1.2297,-1.2425,-1.249,-1.2571,-1.2585,-1.2616,-1.2598,-1.2583,-1.2588,-1.2585,-1.2591,-1.2618,-1.2619,-1.2619,-1.2619,0,-1.1606,-1.1632,-1.17,-1.178,-1.1837,-1.1903,-1.1969,-1.2003,-1.2073,-1.2127,-1.221,-1.2264,-1.2371,-1.2454,-1.2542,-1.2591,-1.2618,-1.2624,-1.2638,-1.2625,-1.2602,-1.2616,-1.2532,-1.2622,-1.2622,-1.2621,-1.2621,-1.2621,-1.1638,-1.1686,-1.1761,-1.1837,-1.1893,-1.1954,-1.2007,-1.2062,-1.2131,-1.2222,-1.2252,-1.2338,-1.2415,-1.2536,-1.2586,-1.2655,-1.2655,-1.2674,-1.2679,-1.2683,-1.2683,-1.2589,-1.2671,-1.2671,-1.2671,-1.2671,-1.2671,0,-1.1697,-1.1748,-1.1817,-1.1908,-1.1968,-1.1987,-1.2062,-1.2111,-1.2186,-1.2255,-1.2323,-1.2419,-1.25,-1.2572,-1.2656,-1.2698,-1.2713,-1.2719,-1.2717,-1.2728,-1.2677,-1.2658,-1.2706,-1.2706,-1.2706,-1.2706,-1.2706,-1.2706,-1.1735,-1.1818,-1.1853,-1.1965,-1.2016,-1.2099,-1.2141,-1.2199,-1.2254,-1.2359,-1.2426,-1.2472,-1.2544,-1.2634,-1.271,-1.2729,-1.2759,-1.2762,-1.2785,-1.2736,-1.2732,-1.2728,-1.271,-1.2768,-1.2768,-1.2831,-1.2832,-1.2832]},{"header":{"parameterUnit":"m.s-1","parameterCategory":1,"la1":30.2991,"la2":30.254,"lo1":-89.0895,"lo2":-89.0444,"dy":0.0017,"dx":0.0017,"nx":28,"ny":28,"refTime":"2024-06-04T03:00:00:Z","depth":0,"parameterNumber":3,"parameterNumberName":"V-component_of_WINDS"},"data":[0,0,0,0,0,0,0,0,0,0,0,0,0,0,0,0,0,0,0,0,0,0,0,0,0,0,0,0,0,0,0,0,0,0,0,0,0,0,0,0,0,0,0,0,0,0,0,0,0,0,0,0,0,0,0,0,0,0,4.1242,4.1241,0,4.1174,4.1173,4.1172,4.1111,4.111,4.111,4.1109,4.1036,4.1035,4.1033,0,0,0,0,0,0,0,0,0,0,0,0,0,4.1316,4.1315,4.1242,4.1241,4.124,4.1174,4.1173,4.1172,4.1111,4.111,4.111,4.1109,4.1036,4.1035,4.1033,0,0,0,0,0,0,0,0,0,0,0,0,0,4.1269,4.1314,4.1242,4.1202,4.1197,4.1174,4.1173,4.1172,4.1111,4.111,4.1109,4.1108,4.1037,4.1035,4.1033,4.1043,0,0,4.1027,4.1026,0,0,0,0,0,0,0,0,4.1272,4.1267,4.1208,4.1204,4.12,4.115,4.1172,4.1129,4.1112,4.1144,4.1109,4.1108,4.1074,4.1069,4.1059,4.1039,4.1036,4.1027,4.1026,4.1025,4.1024,0,0,0,0,0,0,0,4.1275,4.1269,4.1215,4.1208,4.1202,4.1186,4.1179,4.1164,4.1116,4.1141,4.1136,4.113,4.1072,4.1061,4.1057,4.1035,4.1027,4.1025,4.1024,4.1023,4.1022,4.1023,0,0,0,0,0,0,4.1285,4.1272,4.1217,4.1213,4.1234,4.1186,4.1177,4.1167,4.1116,4.1107,4.1131,4.1127,4.1065,4.1059,4.1054,4.1063,4.1025,4.1023,4.1022,4.1021,4.1022,4.1024,0,0,0,0,0,0,4.1287,4.1281,4.122,4.1241,4.1232,4.1186,4.1175,4.1166,4.1155,4.1108,4.1099,4.1128,4.1064,4.1057,4.1047,4.106,4.1022,4.1021,4.102,4.1021,4.1023,4.1081,0,0,0,0,0,0,4.1289,4.1282,4.1285,4.1242,4.1231,4.1214,4.1176,4.1166,4.1153,4.1147,4.1104,4.1095,4.1062,4.105,4.1045,4.1056,4.1019,4.1018,4.1021,4.1023,4.1078,4.1085,4.109,0,0,0,0,0,4.1292,4.1303,4.1286,4.1279,4.1235,4.1215,4.1209,4.1172,4.1154,4.1157,4.1127,4.1097,4.1059,4.1049,4.1043,4.1054,4.1017,4.102,4.1022,4.1075,4.1083,4.109,0,0,0,0,0,0,4.1347,4.1296,4.1277,4.1274,4.125,4.1205,4.1207,4.1182,4.116,4.1156,4.111,4.1101,4.1096,4.1074,4.1064,4.1062,4.1034,4.1036,4.1077,4.1084,4.109,4.1095,4.1018,0,0,0,0,0,4.136,4.1349,4.1304,4.1306,4.1295,4.1254,4.1244,4.1218,4.119,4.1179,4.1148,4.1121,4.1103,4.1092,4.1073,4.1075,4.1065,4.1079,4.1086,4.1091,4.1093,4.1093,4.1099,4.1032,4.1032,4.1032,0,0,4.1384,4.1355,4.135,4.1317,4.1295,4.1284,4.1245,4.1235,4.1226,4.1176,4.1166,4.1143,4.111,4.1106,4.1103,4.1088,4.1109,4.1094,4.1099,4.1097,4.1096,4.1103,4.1108,4.1034,4.1033,4.1033,0,0,4.1423,4.14,4.14,4.1379,4.1347,4.132,4.132,4.128,4.1263,4.1252,4.1215,4.1204,4.1174,4.1153,4.1138,4.1172,4.1144,4.1167,4.1199,4.12,4.1206,4.121,4.1223,4.1228,4.1169,4.1169,4.1169,0,4.1456,4.144,4.1402,4.1395,4.1382,4.1339,4.1338,4.1319,4.1282,4.1274,4.1258,4.1221,4.1196,4.1187,4.1196,4.1185,4.1184,4.1171,4.1208,4.1212,4.1216,4.1228,4.1233,4.1172,4.1172,4.1172,4.1171,0,4.1483,4.1473,4.1476,4.1444,4.1431,4.1427,4.1389,4.138,4.1356,4.1331,4.1321,4.1289,4.1264,4.126,4.1235,4.1249,4.124,4.1217,4.1188,4.1226,4.1236,4.1241,4.1177,4.1176,4.1175,4.1174,0,0,4.1553,4.1502,4.1504,4.149,4.1453,4.1443,4.1438,4.1415,4.1409,4.1385,4.1379,4.1357,4.1336,4.1319,4.1292,4.1293,4.1323,4.1269,4.1268,4.1281,4.1337,4.1355,4.1361,4.1305,4.1306,4.1306,4.134,0,4.1586,4.1575,4.1542,4.1541,4.1531,4.1491,4.1486,4.1463,4.144,4.1427,4.1401,4.1386,4.1359,4.1349,4.1348,4.132,4.1334,4.1317,4.1299,4.1299,4.1308,4.1366,4.1384,4.1417,4.1344,4.1344,4.1345,0,4.1622,4.1604,4.1602,4.1567,4.1562,4.1558,4.1536,4.1525,4.1498,4.1481,4.1464,4.1435,4.1427,4.1401,4.139,4.1379,4.137,4.1355,4.1355,4.1352,4.1324,4.1364,4.1427,4.1432,4.135,4.135,4.135,0,4.1674,4.1648,4.1644,4.1633,4.1592,4.1591,4.1574,4.1546,4.1535,4.1515,4.1508,4.1487,4.1475,4.146,4.1425,4.141,4.1418,4.1389,4.1404,4.1405,4.1407,4.1407,4.1469,4.1401,4.1401,4.1401,4.1401,0,4.1714,4.1714,4.1668,4.1665,4.1665,4.1628,4.1628,4.1607,4.1583,4.1576,4.154,4.1533,4.1489,4.1478,4.1451,4.1446,4.1441,4.1427,4.142,4.143,4.1432,4.1423,4.142,4.1402,4.1402,4.1402,4.1402,0,4.1771,4.1739,4.1733,4.1696,4.1687,4.1688,4.1656,4.1652,4.1628,4.1619,4.1615,4.1576,4.1561,4.1526,4.1501,4.1483,4.1486,4.1473,4.1495,4.1491,4.1508,4.1507,4.1566,4.1572,4.1501,4.1502,4.1502,0,4.1798,4.1798,4.1762,4.1755,4.174,4.173,4.1719,4.1683,4.1673,4.1644,4.1644,4.1627,4.1611,4.1589,4.1558,4.1539,4.1525,4.1547,4.1522,4.1533,4.1526,4.1527,4.1527,4.1553,4.1554,4.1555,4.1555,0,4.185,4.1835,4.1822,4.1804,4.1793,4.1777,4.1759,4.1755,4.1714,4.1705,4.1691,4.1679,4.1655,4.1638,4.1615,4.1597,4.1569,4.1564,4.1566,4.1577,4.159,4.1584,4.1511,4.1562,4.1562,4.1561,4.1561,4.156,4.1893,4.1892,4.1867,4.1854,4.1837,4.1822,4.1817,4.1793,4.1781,4.176,4.1739,4.1727,4.1701,4.1668,4.1652,4.1641,4.1627,4.163,4.1631,4.1633,4.1638,4.1593,4.1637,4.1636,4.1636,4.1636,4.1636,0,4.1943,4.1926,4.1915,4.1892,4.1882,4.1859,4.1839,4.1832,4.1822,4.1801,4.1787,4.1771,4.1756,4.1725,4.1706,4.1704,4.1691,4.1701,4.17,4.1697,4.1651,4.1651,4.1711,4.1711,4.1711,4.1711,4.1711,4.1711,4.1968,4.1966,4.1949,4.1938,4.192,4.1909,4.19,4.1885,4.1869,4.1853,4.1841,4.1822,4.1797,4.1777,4.1762,4.1753,4.1748,4.1762,4.1749,4.1707,4.1699,4.1693,4.1692,4.1761,4.1761,4.1795,4.1796,4.1796]}]]